Time,TemperatureF,DewpointF,PressureIn,WindDirection,WindDirectionDegrees,WindSpeedMPH,WindSpeedGustMPH,Humidity,HourlyPrecipIn,Conditions,Clouds,dailyrainin,SoftwareType,DateUTC
2013-02-01 00:01:00,29.0,28.0,-100.00,West,270,3.0,4.0,94,-99.99,,,0.00,,2013-02-01 07:01:00,
2013-02-01 02:51:00,32.0,31.0,-100.00,West,265,13.0,19.0,99,-99.99,,,0.00,,2013-02-01 09:51:00,
2013-02-01 03:01:00,32.0,31.0,-100.00,West,265,13.0,19.0,99,-99.99,,,0.00,,2013-02-01 10:01:00,
2013-02-01 03:11:00,32.0,31.0,-100.00,West,265,13.0,19.0,99,-99.99,,,0.00,,2013-02-01 10:11:00,
2013-02-01 04:00:00,31.0,31.0,-100.00,West,260,12.0,17.0,99,-99.99,,,0.00,,2013-02-01 11:00:00,
2013-02-01 04:32:00,31.0,31.0,-100.00,West,260,12.0,17.0,99,-99.99,,,0.00,,2013-02-01 11:32:00,
2013-02-01 04:41:00,31.0,31.0,-100.00,West,260,12.0,17.0,99,-99.99,,,0.00,,2013-02-01 11:41:00,
2013-02-01 04:53:00,31.0,31.0,-100.00,West,260,12.0,17.0,99,-99.99,,,0.00,,2013-02-01 11:53:00,
2013-02-01 05:00:00,31.0,31.0,-100.00,West,260,11.0,15.0,99,-99.99,,,0.00,,2013-02-01 12:00:00,
2013-02-01 05:32:00,31.0,31.0,-100.00,West,260,11.0,15.0,99,-99.99,,,0.00,,2013-02-01 12:32:00,
2013-02-01 05:42:00,31.0,31.0,-100.00,West,260,11.0,15.0,99,-99.99,,,0.00,,2013-02-01 12:42:00,
2013-02-01 05:52:00,31.0,31.0,-100.00,West,260,11.0,15.0,99,-99.99,,,0.00,,2013-02-01 12:52:00,
2013-02-01 06:00:00,30.0,30.0,-100.00,West,265,11.0,14.0,99,-99.99,,,0.00,,2013-02-01 13:00:00,
2013-02-01 06:11:00,30.0,30.0,-100.00,West,275,8.0,12.0,99,-99.99,,,0.00,,2013-02-01 13:11:00,
2013-02-01 06:21:00,30.0,30.0,-100.00,West,275,8.0,12.0,99,-99.99,,,0.00,,2013-02-01 13:21:00,
2013-02-01 06:32:00,30.0,30.0,-100.00,West,265,11.0,14.0,99,-99.99,,,0.00,,2013-02-01 13:32:00,
2013-02-01 06:42:00,30.0,30.0,-100.00,West,265,11.0,14.0,99,-99.99,,,0.00,,2013-02-01 13:42:00,
2013-02-01 06:52:00,30.0,30.0,-100.00,West,265,11.0,14.0,99,-99.99,,,0.00,,2013-02-01 13:52:00,
2013-02-01 07:11:00,30.0,30.0,-100.00,West,265,8.0,10.0,99,-99.99,,,0.00,,2013-02-01 14:11:00,
2013-02-01 07:21:00,30.0,30.0,-100.00,West,265,8.0,10.0,99,-99.99,,,0.00,,2013-02-01 14:21:00,
2013-02-01 08:00:00,31.0,30.0,-100.00,West,265,14.0,17.0,99,-99.99,,,0.00,,2013-02-01 15:00:00,
2013-02-01 08:12:00,30.0,30.0,-100.00,West,280,9.0,12.0,99,-99.99,,,0.00,,2013-02-01 15:12:00,
2013-02-01 08:21:00,30.0,30.0,-100.00,West,280,9.0,12.0,99,-99.99,,,0.00,,2013-02-01 15:21:00,
2013-02-01 08:32:00,31.0,30.0,-100.00,West,265,14.0,17.0,99,-99.99,,,0.00,,2013-02-01 15:32:00,
2013-02-01 08:42:00,31.0,30.0,-100.00,West,265,14.0,17.0,99,-99.99,,,0.00,,2013-02-01 15:42:00,
2013-02-01 08:51:00,31.0,30.0,-100.00,West,265,14.0,17.0,99,-99.99,,,0.00,,2013-02-01 15:51:00,
2013-02-01 09:00:00,31.0,30.0,-100.00,West,260,12.0,18.0,99,-99.99,,,0.00,,2013-02-01 16:00:00,
2013-02-01 09:11:00,30.0,30.0,-100.00,West,265,13.0,17.0,99,-99.99,,,-99.99,,2013-02-01 16:11:00,
2013-02-01 09:22:00,30.0,30.0,-100.00,West,265,13.0,17.0,99,-99.99,,,-99.99,,2013-02-01 16:22:00,
2013-02-01 09:32:00,31.0,30.0,-100.00,West,260,12.0,18.0,99,-99.99,,,0.00,,2013-02-01 16:32:00,
2013-02-01 09:42:00,31.0,30.0,-100.00,West,260,12.0,18.0,99,-99.99,,,0.00,,2013-02-01 16:42:00,
2013-02-01 09:52:00,31.0,30.0,-100.00,West,260,12.0,18.0,99,-99.99,,,0.00,,2013-02-01 16:52:00,
2013-02-01 10:00:00,31.0,30.0,-100.00,West,275,9.0,12.0,99,-99.99,,,0.00,,2013-02-01 17:00:00,
2013-02-01 10:11:00,30.0,30.0,-100.00,West,270,12.0,19.0,99,-99.99,,,0.00,,2013-02-01 17:11:00,
2013-02-01 10:22:00,30.0,30.0,-100.00,West,270,12.0,19.0,99,-99.99,,,0.00,,2013-02-01 17:22:00,
2013-02-01 10:32:00,31.0,30.0,-100.00,West,275,9.0,12.0,99,-99.99,,,0.00,,2013-02-01 17:32:00,
2013-02-01 10:42:00,31.0,30.0,-100.00,West,275,9.0,12.0,99,-99.99,,,0.00,,2013-02-01 17:42:00,
2013-02-01 10:52:00,31.0,30.0,-100.00,West,275,9.0,12.0,99,-99.99,,,0.00,,2013-02-01 17:52:00,
2013-02-01 11:12:00,31.0,31.0,-100.00,West,275,6.0,8.0,99,-99.99,,,0.00,,2013-02-01 18:12:00,
2013-02-01 11:22:00,31.0,31.0,-100.00,West,275,6.0,8.0,99,-99.99,,,0.00,,2013-02-01 18:22:00,
2013-02-01 11:32:00,32.0,31.0,-100.00,West,280,8.0,11.0,99,-99.99,,,-99.99,,2013-02-01 18:32:00,
2013-02-01 11:42:00,32.0,31.0,-100.00,West,280,8.0,11.0,99,-99.99,,,-99.99,,2013-02-01 18:42:00,
2013-02-01 11:52:00,32.0,31.0,-100.00,West,280,8.0,11.0,99,-99.99,,,-99.99,,2013-02-01 18:52:00,
2013-02-01 12:00:00,32.0,31.0,-100.00,West,270,6.0,9.0,99,-99.99,,,0.00,,2013-02-01 19:00:00,
2013-02-01 12:11:00,32.0,32.0,-100.00,West,270,7.0,11.0,99,-99.99,,,0.00,,2013-02-01 19:11:00,
2013-02-01 12:21:00,32.0,32.0,-100.00,West,270,7.0,11.0,99,-99.99,,,0.00,,2013-02-01 19:21:00,
2013-02-01 12:32:00,32.0,31.0,-100.00,West,270,6.0,9.0,99,-99.99,,,0.00,,2013-02-01 19:32:00,
2013-02-01 12:41:00,32.0,31.0,-100.00,West,270,6.0,9.0,99,-99.99,,,0.00,,2013-02-01 19:41:00,
2013-02-01 12:51:00,32.0,31.0,-100.00,West,270,6.0,9.0,99,-99.99,,,0.00,,2013-02-01 19:51:00,
2013-02-01 13:00:00,32.0,32.0,-100.00,West,260,4.0,5.0,99,-99.99,,,0.00,,2013-02-01 20:00:00,
2013-02-01 13:11:00,32.0,32.0,-100.00,West,270,8.0,10.0,99,-99.99,,,0.00,,2013-02-01 20:11:00,
2013-02-01 13:21:00,32.0,32.0,-100.00,West,270,8.0,10.0,99,-99.99,,,0.00,,2013-02-01 20:21:00,
2013-02-01 13:31:00,32.0,32.0,-100.00,West,260,4.0,5.0,99,-99.99,,,0.00,,2013-02-01 20:31:00,
2013-02-01 13:41:00,32.0,32.0,-100.00,West,260,4.0,5.0,99,-99.99,,,0.00,,2013-02-01 20:41:00,
2013-02-01 13:52:00,32.0,32.0,-100.00,West,260,4.0,5.0,99,-99.99,,,0.00,,2013-02-01 20:52:00,
2013-02-01 14:00:00,35.0,29.0,-100.00,West,275,13.0,16.0,77,-99.99,,,0.00,,2013-02-01 21:00:00,
2013-02-01 14:11:00,32.0,31.0,-100.00,West,260,7.0,11.0,94,-99.99,,,0.00,,2013-02-01 21:11:00,
2013-02-01 14:21:00,32.0,31.0,-100.00,West,260,7.0,11.0,94,-99.99,,,0.00,,2013-02-01 21:21:00,
2013-02-01 14:31:00,35.0,29.0,-100.00,West,275,13.0,16.0,77,-99.99,,,0.00,,2013-02-01 21:31:00,
2013-02-01 14:41:00,35.0,29.0,-100.00,West,275,13.0,16.0,77,-99.99,,,0.00,,2013-02-01 21:41:00,
2013-02-01 14:52:00,35.0,29.0,-100.00,West,275,13.0,16.0,77,-99.99,,,0.00,,2013-02-01 21:52:00,
2013-02-01 15:00:00,35.0,26.0,-100.00,West,270,11.0,16.0,69,-99.99,,,0.00,,2013-02-01 22:00:00,
2013-02-01 15:32:00,35.0,26.0,-100.00,West,270,11.0,16.0,69,-99.99,,,0.00,,2013-02-01 22:32:00,
2013-02-01 15:42:00,35.0,26.0,-100.00,West,270,11.0,16.0,69,-99.99,,,0.00,,2013-02-01 22:42:00,
2013-02-01 15:51:00,35.0,26.0,-100.00,West,270,11.0,16.0,69,-99.99,,,0.00,,2013-02-01 22:51:00,
2013-02-01 16:11:00,35.0,25.0,-100.00,West,265,13.0,17.0,66,-99.99,,,0.00,,2013-02-01 23:11:00,
2013-02-01 16:21:00,35.0,25.0,-100.00,West,265,13.0,17.0,66,-99.99,,,0.00,,2013-02-01 23:21:00,
2013-02-01 16:31:00,34.0,25.0,-100.00,West,260,9.0,13.0,69,-99.99,,,0.00,,2013-02-01 23:31:00,
2013-02-01 16:41:00,34.0,25.0,-100.00,West,260,9.0,13.0,69,-99.99,,,0.00,,2013-02-01 23:41:00,
2013-02-01 16:52:00,34.0,25.0,-100.00,West,260,9.0,13.0,69,-99.99,,,0.00,,2013-02-01 23:52:00,
2013-02-01 17:00:00,30.0,30.0,-100.00,West,270,8.0,11.0,98,-99.99,,,0.00,,2013-02-02 00:00:00,
2013-02-01 17:11:00,31.0,29.0,-100.00,WNW,290,9.0,11.0,91,-99.99,,,0.00,,2013-02-02 00:11:00,
2013-02-01 17:21:00,31.0,29.0,-100.00,WNW,290,9.0,11.0,91,-99.99,,,0.00,,2013-02-02 00:21:00,
2013-02-01 17:30:00,30.0,30.0,-100.00,West,265,9.0,12.0,98,-99.99,,,0.00,,2013-02-02 00:30:00,
2013-02-01 17:32:00,30.0,30.0,-100.00,West,270,8.0,11.0,98,-99.99,,,0.00,,2013-02-02 00:32:00,
2013-02-01 17:41:00,30.0,30.0,-100.00,West,270,8.0,11.0,98,-99.99,,,0.00,,2013-02-02 00:41:00,
2013-02-01 17:52:00,30.0,30.0,-100.00,West,270,8.0,11.0,98,-99.99,,,0.00,,2013-02-02 00:52:00,
2013-02-01 18:11:00,30.0,30.0,-100.00,West,265,9.0,12.0,98,-99.99,,,0.00,,2013-02-02 01:11:00,
2013-02-01 18:21:00,30.0,30.0,-100.00,West,265,9.0,12.0,98,-99.99,,,0.00,,2013-02-02 01:21:00,
2013-02-01 20:51:00,29.0,27.0,-100.00,West,265,7.0,9.0,93,-99.99,,,0.00,,2013-02-02 03:51:00,
2013-02-01 21:01:00,29.0,27.0,-100.00,West,265,7.0,9.0,93,-99.99,,,0.00,,2013-02-02 04:01:00,
2013-02-01 21:11:00,29.0,27.0,-100.00,West,265,7.0,9.0,93,-99.99,,,0.00,,2013-02-02 04:11:00,
2013-02-01 23:11:00,30.0,21.0,-100.00,West,275,12.0,17.0,69,-99.99,,,0.00,,2013-02-02 06:11:00,
2013-02-01 23:51:00,30.0,21.0,-100.00,West,275,12.0,17.0,69,-99.99,,,0.00,,2013-02-02 06:51:00,